Theta_e
349 348 348 348 349 348 348 349 349 349 352 351 350 349 350 349 350 350 349 351 350 350 353 351 348 348 349 349 349 348 348 347 346 347 347 348 348 354 358 357 357 356 356 357 358 359 358 358 357 357 357 357 356 356 355 355 355 356 355 355 355 354 354 355 355 355 355 355 355 355 355 355 355 355 355 356 355 356 356 355 355 355 355 355 355
349 348 349 347 348 349 350 348 349 350 350 350 353 350 349 350 350 350 352 350 349 353 351 351 348 348 348 350 349 350 349 348 347 347 348 349 348 353 359 358 357 356 356 357 358 358 358 358 358 358 357 357 356 356 356 356 355 356 356 355 355 355 355 355 356 356 356 356 356 355 356 356 355 355 356 356 356 356 356 356 356 355 356 356 354
350 348 348 348 347 348 348 349 350 352 351 349 353 352 351 350 349 350 350 350 351 352 351 349 347 347 350 349 350 350 350 350 350 349 349 348 348 349 356 359 358 357 357 358 357 358 358 358 358 357 357 356 356 356 356 356 356 356 355 356 357 356 356 356 356 356 357 356 356 356 356 356 356 356 356 356 356 356 356 356 356 355 355 355 354
350 350 349 348 347 348 348 349 349 351 353 352 353 355 354 352 353 353 353 353 352 351 352 348 346 347 348 348 349 350 350 350 351 351 351 349 348 348 349 355 359 359 359 359 358 359 358 358 358 357 357 356 356 356 356 356 356 356 356 356 357 357 356 357 357 357 356 357 357 356 356 356 356 356 356 356 356 356 355 356 355 355 355 355 354
350 352 356 349 349 348 348 350 349 350 352 355 354 351 350 353 355 357 351 350 351 350 355 350 348 346 347 348 349 350 350 350 350 351 351 351 350 349 350 352 354 359 360 359 359 359 358 358 358 358 358 358 357 357 357 357 357 357 357 357 357 357 357 357 357 357 357 357 356 357 356 357 356 356 356 356 356 355 355 355 355 355 355 354 354
351 351 352 350 350 349 349 350 351 352 352 350 349 349 350 349 353 352 358 352 349 349 348 347 348 347 346 348 347 350 350 350 350 351 351 351 351 351 351 350 351 351 353 359 359 359 360 359 359 359 358 358 358 357 358 358 358 357 357 357 357 356 357 357 357 357 357 357 357 357 357 357 356 356 356 356 355 355 355 354 354 355 354 354 354
352 353 351 350 350 349 348 351 354 352 350 351 349 349 348 349 355 350 350 349 348 352 351 347 349 346 345 347 346 349 350 349 350 350 350 350 351 351 352 352 350 350 353 350 361 359 360 360 359 359 359 358 358 359 358 358 358 357 357 358 357 357 357 358 357 357 357 357 357 357 357 357 357 356 356 356 355 354 355 354 354 354 353 353 353
353 352 351 350 350 349 348 353 355 351 351 351 349 348 348 349 353 350 348 348 351 347 348 347 347 348 346 345 345 351 348 349 349 349 350 350 351 351 351 351 352 350 358 350 351 355 360 360 360 360 360 360 359 359 359 359 359 358 359 358 358 358 358 358 358 358 358 358 358 357 357 357 356 356 356 355 355 354 354 354 353 353 352 352 352
352 352 351 351 350 349 349 353 354 350 352 350 348 351 349 352 349 354 348 344 346 348 346 345 346 348 347 345 344 349 347 348 348 349 351 349 350 351 351 352 354 360 354 354 351 351 357 360 361 361 361 360 360 360 360 360 360 360 360 360 360 359 359 359 358 359 358 358 358 358 357 357 357 356 356 355 354 354 353 352 352 352 351 352 351
351 351 350 352 351 350 350 352 352 349 350 349 346 349 347 348 347 350 350 346 344 344 344 344 346 347 345 346 343 347 346 347 349 356 349 349 349 350 351 352 353 354 354 354 353 351 351 356 360 361 361 361 361 361 360 360 361 361 360 360 360 359 359 360 360 359 359 358 358 358 357 357 356 356 355 354 354 353 353 352 351 351 351 351 350
351 352 350 353 351 351 352 352 350 348 347 347 345 346 346 345 346 345 350 348 346 345 344 344 345 345 343 342 345 345 345 345 351 352 349 350 350 352 352 351 352 352 353 354 353 352 351 350 350 352 355 359 362 362 362 361 361 362 361 361 361 361 360 359 359 359 358 358 358 357 357 356 356 355 355 354 354 353 352 352 352 352 352 350 350
350 351 351 354 350 351 352 352 349 347 346 344 343 346 345 343 343 345 343 346 351 347 344 343 341 338 347 342 342 343 344 348 348 349 351 350 351 354 351 352 352 352 353 354 354 353 351 350 353 351 352 356 359 360 362 362 362 362 362 362 362 361 360 360 358 358 358 357 357 358 358 357 356 356 355 355 355 354 353 353 353 353 352 351 350
352 352 352 355 352 350 351 351 350 348 347 346 346 346 345 344 346 349 345 342 342 345 343 341 335 334 333 335 337 342 349 351 347 348 349 349 349 352 352 353 352 352 353 354 353 353 352 351 350 350 351 350 353 359 361 362 363 363 362 363 363 362 361 361 360 359 358 358 358 359 359 358 358 356 356 356 355 355 354 354 353 353 352 352 352
354 352 355 353 351 350 350 350 351 349 349 350 347 353 350 346 347 344 346 346 340 343 343 340 333 329 330 330 335 333 342 350 348 347 348 348 348 350 351 352 352 352 353 353 353 353 353 352 351 351 351 350 351 350 352 354 357 360 362 363 364 364 363 363 362 361 360 359 359 359 359 358 358 357 357 356 356 356 355 354 353 353 352 353 353
354 354 355 354 351 352 351 350 350 351 349 347 348 351 350 348 346 344 340 339 345 343 341 340 333 333 332 331 324 328 334 333 338 342 345 347 347 348 350 350 351 352 352 352 352 353 354 354 352 351 351 350 350 350 350 355 355 359 360 360 361 364 364 364 364 363 361 360 360 360 360 359 359 358 357 357 357 356 355 354 353 352 352 352 352
354 354 356 355 353 353 352 351 349 351 348 346 345 346 347 348 348 348 340 334 332 334 343 338 336 333 328 327 325 326 322 326 329 334 340 343 346 346 349 349 350 350 351 351 352 352 352 353 353 352 352 351 351 350 350 349 353 359 362 364 364 362 362 364 364 364 363 363 362 361 361 360 360 359 358 357 357 357 357 356 354 353 352 353 353
356 355 357 355 354 355 354 352 351 351 352 347 346 348 349 350 349 347 340 333 331 332 339 340 339 337 335 330 324 324 323 326 331 330 338 339 342 345 349 350 349 349 350 350 350 351 351 352 352 352 352 352 351 351 350 350 351 356 357 362 364 363 363 364 365 365 364 363 362 362 362 361 360 360 359 359 358 358 358 357 356 355 354 353 353
357 355 357 357 354 355 356 354 351 351 354 352 349 347 347 349 349 347 345 337 332 333 333 345 341 345 340 332 329 326 324 330 327 324 330 342 342 343 344 348 348 349 348 348 348 348 353 351 351 352 352 352 352 352 351 351 354 352 351 352 359 361 362 363 364 365 366 365 363 362 362 362 361 361 360 360 359 359 358 358 357 357 356 355 354
358 357 358 358 355 355 356 355 354 352 356 354 349 350 350 352 351 346 344 348 335 332 333 335 334 339 345 343 348 344 335 332 326 326 324 327 332 337 340 342 346 346 346 347 348 347 347 350 350 351 351 352 352 352 351 352 357 358 359 360 360 360 360 359 361 363 365 366 365 363 363 362 361 361 360 360 360 359 359 358 357 357 357 356 356
359 357 359 360 357 355 356 356 356 355 356 355 353 352 353 351 353 349 349 348 336 333 332 333 332 334 350 341 348 346 340 337 333 331 325 322 324 330 337 337 339 342 345 346 347 347 346 345 347 348 348 348 349 350 351 351 350 351 356 359 361 362 361 359 360 361 364 366 366 365 364 363 362 361 359 360 360 360 359 359 359 358 357 357 356
359 358 359 360 361 357 356 356 358 357 361 357 355 355 353 351 350 345 346 344 337 335 334 333 332 332 334 335 338 339 336 338 342 338 332 326 325 329 331 333 334 334 337 342 344 345 345 344 344 348 348 348 346 347 348 348 348 349 354 356 359 361 361 359 359 361 363 365 366 366 365 364 363 363 362 362 360 360 360 359 360 359 359 359 358
357 358 358 359 360 359 358 357 359 359 362 358 355 355 353 350 351 347 343 343 344 341 336 335 335 335 336 336 336 337 334 333 333 333 333 332 329 329 331 331 327 329 334 335 338 340 341 341 341 343 346 345 345 345 345 346 346 346 349 355 358 360 359 358 358 361 362 363 365 365 364 364 364 363 362 362 362 362 362 361 361 361 361 360 359
356 357 357 358 359 360 358 359 360 361 362 358 356 357 355 353 352 348 346 344 345 342 349 340 339 339 337 337 336 336 334 333 331 334 333 330 330 330 332 334 328 327 330 335 340 338 338 338 338 339 342 345 345 345 345 345 352 351 354 354 355 356 357 358 358 359 357 357 360 361 363 364 364 364 363 363 363 362 362 361 361 362 362 361 360
354 355 355 357 358 358 359 358 360 358 359 359 358 357 357 354 352 349 346 343 344 345 342 340 340 339 338 338 338 338 337 335 335 335 335 332 333 330 330 330 330 330 333 337 339 339 339 338 338 339 340 342 345 347 347 348 349 356 356 356 355 355 356 358 359 358 356 354 353 355 358 360 361 362 363 363 364 364 363 363 362 362 362 362 360
351 353 354 356 357 357 356 356 357 358 358 358 357 357 355 355 353 351 348 346 345 343 340 341 343 340 339 340 340 341 340 341 341 340 338 336 334 332 328 333 329 327 331 335 332 335 337 338 338 338 339 341 344 346 347 348 348 353 357 355 356 355 355 355 356 354 354 353 353 356 358 360 358 357 356 357 358 358 359 359 360 359 361 361 359
350 352 354 356 357 358 358 356 356 357 357 357 357 356 356 356 354 352 350 349 346 344 343 341 340 339 339 338 339 340 341 343 341 339 337 335 330 328 328 327 331 332 332 334 334 332 333 336 340 339 338 338 340 343 345 347 348 354 357 355 352 352 353 353 354 353 352 351 351 353 354 356 357 357 357 357 358 359 358 359 359 360 360 359 359
350 352 355 356 356 356 357 356 355 355 356 356 357 356 357 356 356 353 353 350 348 348 345 343 344 340 338 338 340 340 340 340 340 340 339 338 335 330 330 329 325 321 330 329 332 333 333 335 342 344 338 342 340 340 343 344 349 355 357 351 350 352 352 351 351 351 350 350 349 350 352 353 354 355 356 357 358 359 359 358 357 357 356 356 355
350 352 354 357 356 356 357 356 355 354 355 355 355 355 355 355 354 353 352 355 350 348 347 345 345 342 343 342 342 343 344 344 344 343 340 338 338 336 333 329 325 321 319 323 324 330 338 338 339 343 345 344 344 343 350 354 349 354 358 351 350 350 351 350 349 348 347 346 347 348 349 350 350 351 352 354 354 354 355 355 353 352 352 352 352
351 354 354 356 357 356 356 356 355 353 353 353 354 354 354 355 355 352 352 354 352 349 348 348 347 347 345 344 344 343 344 345 347 347 339 338 339 338 335 330 323 322 319 320 320 325 333 342 337 338 343 346 348 349 347 346 351 355 349 348 347 347 348 346 346 344 344 344 345 345 346 348 348 349 350 349 348 348 350 350 350 350 351 350 350
352 354 355 355 356 361 356 356 356 354 353 353 353 353 353 354 355 354 353 353 353 350 351 349 348 346 349 348 345 345 345 346 348 346 343 342 340 339 336 334 331 329 323 321 320 324 329 334 337 337 341 346 349 351 349 351 355 356 350 349 349 349 346 345 346 346 345 344 343 342 343 344 343 343 341 340 341 344 347 349 350 349 350 348 347
353 352 354 354 355 357 356 355 355 355 353 353 353 352 352 353 354 353 352 352 352 351 351 351 350 347 346 347 347 346 346 346 348 346 345 342 342 339 337 339 335 332 329 324 324 326 334 334 336 340 342 344 349 351 353 353 355 355 351 351 352 353 351 352 349 348 346 344 342 341 339 338 337 337 337 339 341 343 346 347 346 346 345 344 345
352 352 353 354 354 355 357 356 355 355 355 354 353 352 352 352 353 353 353 352 351 351 351 353 354 350 347 347 348 348 346 345 345 346 345 343 341 340 339 339 336 334 335 328 327 330 334 339 338 342 345 345 350 351 351 352 355 357 351 353 354 356 355 355 353 349 346 344 342 340 337 335 334 335 339 341 342 344 345 343 341 340 339 338 338
352 352 352 353 353 355 356 356 355 355 355 354 354 353 352 351 351 353 352 352 351 351 351 351 352 350 350 349 349 350 348 345 346 347 346 346 344 342 342 339 339 337 337 334 332 335 337 336 340 341 346 348 349 345 348 351 351 353 355 354 354 355 356 356 357 352 349 344 340 337 337 336 336 337 339 340 341 342 341 340 338 335 334 333 331
352 352 352 353 353 353 355 355 355 355 355 354 354 353 353 351 350 353 352 352 351 351 350 350 351 353 351 349 350 350 348 348 347 347 349 348 346 345 344 345 342 342 340 338 335 333 337 337 339 343 344 348 348 344 346 349 351 353 354 356 357 355 357 357 357 358 351 345 339 336 337 337 337 336 336 337 338 336 336 334 332 330 330 328 326
351 352 352 352 352 352 353 354 355 354 354 354 354 353 353 352 351 352 353 351 351 351 350 351 351 351 350 350 350 350 351 349 349 349 348 348 348 347 346 346 345 344 343 342 338 335 336 339 337 340 341 343 345 349 348 349 349 350 351 354 355 357 357 357 357 358 352 346 341 340 338 337 337 335 333 336 335 331 331 327 327 326 326 325 325
347 351 351 351 351 351 351 352 353 354 354 354 354 354 353 353 353 352 352 352 351 351 351 352 352 352 351 350 350 350 349 348 349 349 348 348 348 347 345 344 345 346 345 344 342 341 338 338 339 342 343 342 344 344 348 351 351 352 350 352 351 353 354 355 355 357 356 346 345 342 339 337 335 333 333 333 331 326 325 325 326 327 326 325 324
342 346 350 350 350 350 350 351 352 353 354 354 354 354 354 354 354 354 353 352 352 351 351 351 357 352 352 351 351 350 349 348 349 349 349 347 349 348 347 346 346 347 346 346 345 343 341 341 341 340 339 340 342 345 345 349 349 347 346 347 351 351 350 353 358 362 353 349 349 345 341 339 336 334 333 333 332 329 326 326 326 326 325 323 322
342 342 345 348 350 349 350 350 352 353 354 354 354 354 354 354 354 354 354 353 353 352 352 351 351 352 353 352 352 352 351 350 350 350 349 349 348 348 347 347 346 344 344 344 345 345 343 344 343 343 340 343 343 343 343 346 347 346 348 349 348 346 351 356 357 360 360 358 355 354 345 341 339 334 330 332 330 329 328 327 327 326 324 321 318
345 343 343 345 348 349 349 350 351 352 353 354 354 354 355 355 354 354 354 354 353 353 353 353 352 352 352 352 352 352 352 352 352 351 350 349 350 349 349 349 347 345 346 346 345 343 343 343 342 342 343 342 344 346 343 342 344 345 343 344 343 342 346 349 354 356 356 355 350 348 344 343 340 338 327 327 329 329 329 328 327 326 324 320 318
348 346 345 344 345 348 348 349 350 352 352 353 354 354 355 355 355 354 354 354 354 353 353 354 354 353 353 352 352 352 352 353 353 353 352 351 350 350 351 350 348 346 346 346 344 343 342 342 342 344 339 340 341 340 341 342 344 342 342 341 343 345 347 346 348 352 351 348 348 347 345 344 340 336 330 330 332 331 330 330 331 331 327 322 320
348 348 348 346 344 345 348 349 349 351 352 353 354 354 354 354 355 354 354 354 354 353 353 353 354 355 355 354 354 353 355 360 359 358 357 357 352 350 351 349 348 347 347 346 345 343 344 343 344 343 341 342 344 343 342 338 339 343 342 346 346 346 344 345 349 349 347 345 343 341 344 344 337 333 332 331 335 336 332 333 332 332 328 322 321
344 347 348 348 346 344 345 348 349 350 351 352 351 343 345 354 354 355 355 354 354 353 353 352 352 353 355 355 357 363 354 354 352 349 344 348 354 355 353 350 349 348 347 346 345 345 344 342 343 343 342 343 344 341 340 339 340 339 342 341 341 342 342 347 348 345 347 343 341 339 340 343 333 330 329 330 333 334 332 330 329 328 326 323 322
342 344 347 346 346 346 345 346 348 350 351 351 341 334 335 340 352 354 354 353 354 354 353 352 352 352 353 354 355 360 364 358 353 346 343 340 341 342 345 353 358 352 348 347 347 346 344 344 345 342 342 343 345 342 342 346 341 342 342 337 342 340 340 342 345 346 345 344 337 334 336 337 331 329 328 330 331 332 332 330 330 328 324 323 322
343 343 344 345 346 346 346 345 346 349 350 344 334 332 333 333 340 355 354 353 353 353 353 353 353 353 352 353 354 355 355 356 357 355 350 344 338 338 338 338 341 346 350 352 350 347 344 345 344 345 343 344 345 341 344 340 343 339 341 340 340 342 342 342 339 341 343 344 337 333 332 332 330 328 326 329 331 331 333 328 327 327 325 323 322
344 343 343 344 345 346 345 344 345 347 349 340 332 330 331 331 332 344 354 353 352 353 353 353 353 352 352 352 352 353 355 362 362 358 355 354 344 336 335 337 339 338 334 334 339 351 350 346 346 346 345 345 344 346 346 341 339 338 335 336 337 340 346 346 344 338 341 340 333 329 328 330 326 327 325 329 330 330 331 330 326 327 324 322 322
344 344 344 343 344 345 345 345 345 346 347 340 331 328 327 328 330 335 352 353 353 353 353 353 353 353 352 352 351 351 352 354 355 355 355 354 353 351 347 346 346 349 344 336 334 335 342 349 348 347 349 348 348 348 349 343 340 340 338 338 337 341 343 346 343 341 341 337 332 327 322 322 325 325 324 327 330 330 329 328 324 324 324 321 321
345 344 344 344 344 345 345 346 345 345 347 335 328 326 324 324 326 331 349 353 353 352 353 353 353 353 353 353 352 351 351 351 351 353 352 352 352 351 350 349 349 349 349 349 348 346 345 346 349 351 352 351 351 352 348 346 345 345 344 343 344 344 345 341 336 338 334 335 329 325 322 322 321 323 324 326 329 328 326 326 324 324 322 320 321
347 347 347 346 345 345 346 346 346 345 347 331 326 324 323 323 325 338 345 349 351 352 352 352 352 353 353 353 352 352 352 351 352 341 349 352 349 349 348 349 348 348 349 351 340 343 351 349 349 351 353 354 346 353 350 346 345 344 346 347 345 342 341 338 339 332 333 333 329 324 320 319 320 324 323 325 324 325 326 326 326 325 322 320 320
347 347 347 347 347 346 346 346 346 346 347 336 324 321 321 321 324 340 344 347 349 350 351 351 352 352 353 353 352 352 352 351 346 334 333 349 349 348 348 347 348 347 348 350 338 330 330 330 331 335 335 334 334 331 329 331 344 344 344 342 346 344 339 340 335 328 330 330 330 326 321 321 323 322 324 323 323 323 325 327 327 325 321 318 318
348 348 348 348 348 348 347 346 346 346 347 339 323 319 319 319 329 341 344 345 347 349 350 351 351 352 353 361 360 352 351 352 338 332 331 340 346 348 347 346 345 345 347 349 350 347 330 326 327 329 330 331 332 331 331 328 327 339 347 344 345 343 343 341 339 332 328 329 332 330 323 322 323 320 320 320 320 320 323 324 326 326 323 319 317
350 349 349 348 348 348 348 348 350 347 347 341 323 319 318 317 327 342 345 345 345 346 348 349 350 351 350 357 361 355 354 347 334 331 328 336 345 347 347 346 345 345 347 348 347 348 345 343 345 343 343 341 342 341 343 336 332 340 347 349 348 345 343 341 338 330 331 329 332 331 326 322 322 322 319 318 313 315 319 323 326 324 322 322 321
Wind_Speed
3 2 2 2 1 1 2 2 1 1 1 1 1 1 0 0 1 1 2 2 1 1 1 2 3 2 4 4 3 3 3 2 2 2 1 0 0 1 5 4 4 4 3 3 3 4 3 4 3 3 2 2 2 1 1 1 1 2 2 2 3 4 4 5 5 6 7 7 7 8 8 8 9 9 9 9 9 10 9 10 9 9 9 9 9
3 2 2 2 1 1 1 1 2 1 1 2 1 1 1 0 1 1 0 0 1 0 1 2 3 2 3 3 3 3 3 3 2 2 1 0 0 2 5 5 5 4 4 4 5 5 5 4 4 4 4 3 2 2 2 2 3 3 3 4 4 5 5 5 6 7 7 8 8 8 9 9 9 9 9 10 10 10 11 12 11 10 10 10 9
4 3 2 2 1 1 1 0 1 0 1 1 0 1 1 2 1 1 1 1 2 0 1 2 3 3 3 3 3 3 3 3 3 2 2 2 1 1 2 6 6 6 5 6 6 5 5 5 5 4 4 3 3 3 4 4 4 4 5 5 5 5 6 7 7 8 8 8 9 9 9 9 9 9 9 9 10 10 10 10 10 10 9 9 8
4 4 3 3 2 1 1 1 1 0 1 1 1 0 1 2 2 1 1 1 2 2 1 3 3 4 3 3 3 4 3 4 4 3 3 2 2 2 2 2 7 7 7 7 6 6 6 5 5 4 4 4 4 5 5 6 6 6 6 7 7 7 7 8 7 8 8 9 9 9 9 9 9 9 9 10 9 9 9 9 9 9 9 8 8
4 4 4 3 3 2 2 2 1 1 1 1 1 1 1 0 0 0 1 1 1 1 1 2 2 3 3 3 3 3 3 3 4 3 4 3 3 3 3 2 2 7 9 8 8 7 6 6 5 5 5 5 6 6 7 7 7 7 7 8 8 8 9 9 8 8 9 8 8 8 8 9 9 9 10 9 9 9 9 9 9 9 9 9 8
5 4 3 4 3 3 3 3 2 2 1 0 0 1 0 1 0 0 0 0 1 2 1 1 2 2 4 4 3 4 4 4 4 4 4 4 4 3 4 3 3 2 2 7 8 7 7 7 7 7 7 7 7 8 8 8 8 8 9 9 8 9 9 9 9 9 9 9 9 9 9 9 10 10 10 10 9 9 9 9 9 9 9 9 9
4 5 4 4 4 4 3 3 3 2 2 0 0 0 1 1 0 1 0 1 1 1 1 1 0 1 4 4 5 4 4 4 4 4 4 4 4 4 4 4 4 3 3 2 5 8 9 9 8 8 8 9 8 9 9 9 9 10 10 10 10 10 10 10 10 10 10 10 10 10 9 10 9 10 10 10 9 9 9 9 9 8 9 9 9
4 4 5 4 4 4 3 3 3 2 2 1 1 2 1 1 0 1 1 1 1 1 1 2 1 1 3 4 4 4 5 4 4 4 4 4 4 4 4 4 4 4 4 4 4 4 10 10 10 9 9 9 10 10 11 11 11 11 11 11 11 11 11 10 10 10 10 10 10 10 10 11 10 10 10 10 10 9 9 9 9 9 9 9 9
4 4 5 4 4 3 3 3 3 2 2 1 2 2 2 2 0 1 2 2 1 1 2 2 2 1 2 4 5 5 5 5 5 5 3 4 4 4 4 5 4 6 4 4 4 4 6 10 10 10 10 11 11 11 11 12 12 12 12 12 12 11 11 10 11 11 11 11 10 11 11 11 10 10 11 10 10 9 9 9 10 10 10 9 9
4 4 4 4 3 3 3 3 3 2 2 2 1 1 1 1 2 1 1 1 0 0 2 2 2 2 1 3 4 5 5 5 5 4 5 5 5 5 5 4 4 4 4 4 4 4 4 6 9 11 12 12 12 12 12 12 12 12 12 12 12 12 12 10 10 10 11 11 11 11 11 11 11 11 11 11 11 11 10 10 11 10 10 9 9
4 4 4 4 3 3 3 3 3 3 2 2 2 1 2 1 2 1 1 1 2 1 1 1 2 3 2 2 3 4 5 4 4 5 5 6 5 5 3 4 4 3 4 4 4 4 4 4 4 4 6 11 12 13 13 13 13 13 13 13 13 13 13 13 12 11 12 11 11 11 11 12 12 12 11 11 11 11 11 12 11 11 11 10 10
4 4 4 4 4 4 5 3 3 3 3 3 3 3 4 3 2 1 1 1 1 2 1 0 1 2 3 1 1 2 3 3 4 5 5 5 5 4 4 3 4 4 4 4 4 4 4 4 5 5 5 7 12 12 13 13 13 14 14 14 14 14 14 13 13 12 12 12 12 11 10 11 12 12 12 12 12 11 12 13 12 12 11 10 10
4 5 5 5 4 4 4 4 3 4 4 5 4 4 3 2 2 1 1 0 1 1 1 2 2 2 2 2 1 0 2 3 4 4 5 5 4 4 4 4 4 4 5 4 4 4 4 5 5 4 5 4 5 10 12 13 14 13 14 14 14 14 14 14 14 13 13 13 13 11 10 9 10 12 13 12 12 13 13 12 12 11 11 11 11
5 5 4 4 4 4 5 5 5 4 4 3 3 3 2 2 2 1 0 2 2 1 3 3 1 1 0 1 3 1 1 3 4 4 4 4 4 4 4 5 5 5 3 4 5 5 5 5 4 5 5 4 5 5 5 7 9 12 13 14 15 14 14 15 15 14 14 14 14 12 11 10 10 10 12 12 12 12 12 12 13 13 11 12 12
5 5 5 5 5 5 5 4 4 4 4 3 3 3 3 3 3 2 1 0 1 1 3 4 2 1 1 2 1 1 3 2 2 3 5 5 4 4 5 5 6 5 4 4 5 5 5 4 5 5 5 5 5 5 5 6 7 11 11 11 13 14 15 15 15 14 14 15 14 12 11 11 11 13 13 12 11 12 13 13 13 13 14 13 12
5 6 5 5 6 6 4 4 5 4 4 4 3 3 2 2 2 1 1 1 1 2 2 3 3 4 0 0 1 1 2 2 3 5 2 4 5 6 5 6 6 4 3 5 6 5 5 4 5 5 5 5 5 5 5 5 8 12 13 13 13 12 14 15 15 15 15 15 13 12 12 12 12 12 13 13 13 13 13 14 14 14 14 15 14
6 6 6 6 6 5 4 5 4 4 3 3 4 4 3 3 4 3 3 3 2 2 0 3 3 2 6 2 2 1 2 3 1 4 1 1 4 5 5 5 5 5 5 6 4 5 5 4 5 5 5 5 5 5 5 5 6 5 8 11 12 12 12 14 15 15 15 15 15 13 12 12 12 13 14 14 15 14 14 13 13 13 14 14 15
6 7 7 6 6 6 5 5 4 4 4 3 3 2 3 3 4 5 4 3 2 1 1 0 3 3 3 3 4 2 1 1 1 2 4 2 2 2 4 5 4 4 4 5 5 6 5 6 4 6 5 5 5 5 5 6 5 6 6 7 12 12 12 13 14 15 15 15 15 14 14 13 13 13 14 15 16 14 15 14 14 13 14 15 15
7 7 8 7 6 6 5 5 4 4 4 4 4 4 4 4 3 3 5 3 2 2 4 3 1 1 1 0 1 0 3 4 2 0 2 3 1 2 3 3 3 4 5 6 6 5 6 5 6 6 5 5 5 5 5 6 7 8 11 12 12 12 12 13 14 15 16 16 15 15 15 14 14 14 14 14 15 16 15 15 15 15 14 15 16
7 7 7 7 6 6 5 4 4 4 3 4 4 4 4 2 3 4 3 4 5 5 4 3 5 3 1 2 1 2 1 1 3 3 2 0 3 4 2 3 3 5 6 7 6 7 7 5 6 6 5 5 5 5 6 6 6 6 6 10 12 12 12 13 14 14 15 16 16 15 15 14 14 14 14 14 15 16 15 15 16 15 16 16 17
6 7 7 6 6 6 6 5 5 4 4 4 3 3 4 4 3 3 3 3 4 3 4 5 3 4 2 1 1 1 1 2 2 2 1 0 2 1 3 2 1 4 5 5 6 5 6 6 5 5 5 6 5 5 6 6 6 6 7 10 11 12 13 13 13 14 15 15 16 15 14 15 14 15 14 14 15 15 16 16 16 17 17 17 17
6 6 6 6 6 5 5 6 6 5 5 5 4 4 3 3 5 4 3 3 3 4 5 4 4 2 2 4 2 0 1 1 1 2 2 1 0 2 1 2 3 4 3 5 6 6 5 5 5 5 5 6 5 5 5 6 6 5 7 11 11 11 13 13 14 13 15 14 13 15 15 15 14 14 14 15 15 16 16 16 16 17 18 18 18
6 6 6 6 6 5 6 6 6 5 5 5 5 5 4 4 4 3 3 4 4 4 2 3 3 2 2 4 5 5 5 2 2 1 1 0 1 2 2 2 3 4 4 3 4 6 5 4 5 6 5 5 5 5 6 6 6 7 11 11 12 12 13 13 14 15 15 15 16 14 15 15 15 15 14 15 15 16 16 16 16 17 18 18 17
6 5 6 6 6 6 6 5 6 5 6 5 5 4 4 3 3 4 3 2 2 3 2 3 3 3 3 3 4 2 2 3 2 4 2 1 1 2 3 3 2 3 6 5 3 4 5 5 6 6 6 5 5 5 5 6 7 11 9 10 12 12 13 14 14 15 15 15 15 15 15 15 15 16 15 15 15 15 15 16 16 17 17 17 17
7 7 7 8 7 6 6 6 5 6 6 5 4 4 4 4 4 4 3 4 4 3 4 4 5 5 6 3 2 3 3 1 4 3 2 3 1 1 1 0 1 3 3 2 2 4 3 5 3 5 5 5 5 4 4 5 6 8 9 7 11 11 13 14 14 15 16 16 16 16 15 14 16 17 17 17 17 16 16 17 17 17 17 17 18
8 8 7 7 6 7 6 6 6 6 5 5 5 5 5 5 4 4 4 4 3 3 4 3 3 3 0 2 2 3 2 3 2 3 2 1 0 2 1 1 0 2 3 2 2 2 3 2 3 3 3 3 5 3 4 4 5 8 8 5 8 11 12 13 14 14 15 16 16 16 16 17 17 17 17 17 16 17 18 17 16 16 18 18 18
8 7 5 6 6 6 6 6 6 6 5 5 5 4 4 4 4 4 4 3 4 3 3 3 3 3 2 3 2 2 3 3 3 3 4 4 4 3 2 4 4 3 3 2 3 0 2 4 2 3 2 3 3 3 4 3 6 8 9 4 5 10 12 13 13 13 14 15 15 15 16 16 16 16 16 15 15 16 17 17 18 17 17 17 16
6 5 5 6 6 6 6 6 6 6 5 5 4 4 4 4 3 3 4 2 4 4 4 3 3 3 3 1 0 3 2 2 2 3 3 5 3 4 3 2 1 4 4 3 3 2 0 1 2 0 1 3 2 2 3 4 4 7 6 3 5 6 10 12 12 12 13 13 13 14 14 14 14 14 14 14 15 15 16 16 15 15 15 14 15
6 5 6 5 6 6 6 6 5 5 5 4 4 4 4 4 5 4 4 4 4 5 4 3 3 3 2 3 3 2 3 1 2 2 2 3 3 4 5 5 5 1 2 2 2 1 2 0 0 1 1 3 4 2 2 3 4 4 3 3 4 4 8 10 11 11 11 12 12 12 12 12 12 12 13 13 13 13 13 13 13 13 12 13 13
6 6 6 6 6 6 6 6 5 4 5 4 4 4 4 5 5 5 5 4 5 3 4 4 4 3 2 1 1 2 2 2 4 2 2 3 4 4 4 3 5 4 4 1 3 3 3 2 2 2 3 5 4 5 3 4 6 3 2 3 4 4 8 9 9 10 11 11 11 11 11 11 10 10 11 11 11 11 10 11 11 11 11 11 12
6 5 6 6 6 6 5 5 5 5 4 4 4 4 4 5 5 5 4 4 5 5 4 3 4 3 3 4 2 3 2 3 3 2 1 2 3 3 2 4 3 3 5 2 0 3 2 2 3 2 2 4 4 4 5 5 5 4 3 3 4 8 10 8 10 10 10 10 11 10 9 9 10 10 10 9 9 9 10 9 9 9 9 9 10
6 6 6 6 6 7 6 6 6 5 5 5 5 5 5 5 5 5 5 4 4 5 4 3 3 3 3 4 4 3 2 2 3 3 3 2 2 3 4 3 3 3 5 4 3 6 3 4 4 6 5 3 5 5 5 5 5 6 4 4 5 7 6 5 7 10 10 11 10 10 10 10 9 8 7 9 8 8 7 8 9 10 9 11 11
6 6 7 7 7 7 7 7 7 6 6 6 5 5 5 5 5 5 5 5 5 5 4 4 3 3 4 4 4 4 2 2 3 3 3 3 2 3 3 3 3 3 3 3 3 6 5 3 3 4 3 2 4 1 4 5 6 6 6 4 4 4 5 5 5 8 10 11 10 9 8 7 6 10 10 7 6 7 7 9 10 10 10 11 12
7 8 8 7 7 7 7 7 7 7 7 6 6 5 6 5 5 4 5 6 6 5 4 5 5 4 4 4 5 4 3 3 3 4 4 3 3 3 3 5 5 5 3 3 4 2 7 3 4 3 4 0 3 1 3 5 6 5 8 8 6 4 6 5 5 6 9 9 9 8 7 10 11 9 8 6 8 8 8 9 10 10 10 10 12
7 7 8 8 7 7 7 7 7 7 7 7 6 6 6 6 6 5 5 5 6 6 6 6 5 4 4 4 5 4 3 3 3 4 3 4 4 4 5 4 4 4 4 4 3 3 5 6 2 4 3 2 2 5 4 3 3 3 5 6 5 6 5 4 4 4 6 8 7 7 9 10 9 8 7 8 8 7 7 8 11 12 11 12 13
8 8 7 8 7 7 8 7 7 7 7 7 6 7 8 7 7 7 5 5 6 6 6 6 6 5 5 5 6 5 4 4 4 4 4 3 4 4 4 3 3 4 3 4 4 4 3 4 4 3 3 4 4 3 4 3 3 5 3 4 3 4 5 4 3 3 4 5 5 7 9 8 8 8 9 10 9 7 6 10 12 12 12 12 12
8 7 7 7 7 8 9 9 8 8 8 8 8 8 7 7 7 7 6 5 5 6 6 6 6 6 6 6 6 4 4 5 5 5 4 4 4 4 4 4 4 3 3 4 5 4 4 6 5 4 2 2 3 4 3 4 4 3 3 3 3 4 4 4 2 2 3 3 3 6 8 8 8 9 10 10 10 8 7 11 12 11 12 12 12
8 8 9 8 8 9 9 9 9 9 8 8 9 9 9 7 7 7 6 5 5 5 5 6 6 6 7 7 6 5 5 6 6 5 4 5 4 4 4 4 4 3 3 3 3 4 4 6 5 6 3 4 4 3 2 1 2 4 5 4 4 2 3 5 4 3 2 2 2 3 5 5 7 9 9 9 10 10 9 10 10 10 11 11 12
10 10 9 9 9 9 10 9 9 10 9 8 8 9 8 8 8 7 7 7 6 5 5 6 6 6 6 6 6 6 7 7 7 6 5 5 5 6 6 5 4 3 4 5 4 4 4 5 4 5 6 4 3 6 2 1 1 2 3 5 3 2 2 3 5 3 1 3 2 3 4 4 6 6 8 10 10 10 10 9 9 9 10 12 12
11 11 11 11 10 9 9 9 10 9 8 8 8 8 8 8 8 8 8 8 7 6 6 6 6 6 7 6 7 7 8 8 8 7 6 7 4 5 6 4 4 4 5 5 4 4 5 4 5 7 3 4 4 3 1 3 4 2 1 1 4 4 3 2 3 4 3 2 4 3 3 4 5 7 9 8 9 10 9 8 9 10 11 12 12
10 11 11 11 10 10 9 9 9 8 9 9 8 9 9 9 8 9 9 9 9 8 7 7 6 7 6 7 7 7 8 11 12 11 9 7 5 7 6 4 4 5 5 5 5 5 5 5 6 5 4 6 6 5 6 2 3 5 3 0 3 3 3 3 5 3 2 1 2 2 4 4 5 6 5 5 6 6 5 7 6 9 11 11 12
11 10 11 11 11 11 11 10 9 8 9 8 10 15 13 10 9 8 8 8 9 8 8 8 7 7 8 7 8 12 13 13 13 13 13 12 11 9 8 5 6 5 6 5 6 6 6 6 7 6 6 7 8 4 3 3 3 2 3 3 3 4 3 4 4 2 0 1 3 3 3 3 5 5 5 5 4 3 3 4 4 7 10 12 12
12 11 11 11 11 11 11 11 11 10 9 9 14 15 16 16 11 9 9 8 8 8 8 8 9 9 8 8 7 9 10 10 11 14 13 14 13 13 13 11 8 7 6 6 7 6 5 6 6 4 6 8 8 3 4 5 3 3 3 2 4 2 2 3 5 4 1 1 2 2 3 2 3 4 4 4 4 4 2 3 4 8 10 11 11
11 11 12 12 12 11 11 11 11 11 11 13 15 15 16 17 15 11 9 8 8 8 8 9 9 9 9 8 7 7 7 8 7 8 10 13 13 14 14 13 13 12 10 9 8 6 5 6 6 7 5 7 8 3 4 2 4 3 4 3 4 5 4 3 2 3 2 2 2 1 2 1 1 1 3 3 3 3 3 4 5 8 11 11 11
10 11 13 12 12 12 11 12 12 12 11 14 15 16 16 17 18 14 9 9 9 9 9 9 9 9 8 8 8 7 7 12 10 8 7 8 11 14 14 13 13 13 13 13 11 9 5 5 7 8 8 6 6 7 4 4 3 3 2 3 4 4 5 5 4 3 2 1 1 1 0 1 1 2 3 4 3 3 3 5 6 7 10 11 10
12 12 12 13 12 12 12 12 11 11 12 14 16 17 17 18 18 15 11 10 9 10 10 10 9 9 9 8 8 8 8 7 7 7 6 7 7 6 6 7 8 11 13 14 15 16 11 8 7 10 10 5 9 7 4 4 3 4 4 5 4 4 5 6 3 2 0 1 1 1 1 1 1 1 2 4 3 4 2 4 6 7 9 10 11
12 12 12 13 13 12 12 12 11 11 11 15 16 18 18 18 18 15 11 10 9 9 10 10 10 10 9 9 9 10 9 7 7 8 7 7 6 6 6 7 8 8 7 7 8 8 8 8 10 11 13 8 9 9 4 5 6 6 5 5 5 5 4 0 1 0 0 1 2 2 2 2 0 2 2 3 5 5 2 4 5 7 8 10 11
11 11 11 11 12 12 12 12 12 13 12 16 16 17 18 18 17 11 10 11 11 10 10 10 10 10 10 10 9 10 10 9 11 14 12 8 5 6 7 8 7 7 7 10 11 9 8 8 9 10 11 11 9 7 5 6 5 4 3 1 1 1 2 3 5 0 2 2 2 2 1 2 1 0 2 3 3 4 4 3 5 7 9 10 10
12 12 12 12 11 11 12 12 13 13 12 14 17 18 18 19 13 9 10 10 10 11 11 11 10 11 11 11 10 10 10 10 13 14 14 11 7 8 8 8 8 6 9 8 7 12 13 13 14 16 17 16 11 9 8 8 6 4 3 2 6 4 4 5 4 2 4 2 2 2 3 1 1 1 3 3 1 3 4 4 3 5 9 9 10
13 13 12 11 12 12 13 14 14 13 13 14 17 18 19 19 16 12 10 10 11 11 11 11 10 10 11 16 14 12 12 12 16 16 15 10 8 9 9 8 7 8 11 8 3 5 9 11 13 14 15 15 14 13 13 11 9 5 6 8 5 5 6 6 6 4 3 1 3 4 2 2 2 1 1 4 2 2 4 3 3 4 6 7 9
13 11 11 12 12 11 13 13 15 16 14 14 17 18 20 20 17 11 11 10 11 11 11 11 11 10 10 12 18 16 13 15 18 16 14 11 8 9 9 8 8 10 12 5 5 6 4 4 6 6 8 11 11 9 9 12 10 9 9 10 5 6 7 6 5 1 2 4 4 5 3 2 0 1 1 4 2 3 3 2 4 4 6 5 6
Wind_Direction
133 133 108 102 95 108 115 146 147 207 144 162 159 195 288 321 260 311 324 341 45 92 106 118 116 126 128 139 136 129 127 123 126 126 95 29 359 201 173 186 195 197 216 203 207 214 210 213 210 210 210 207 203 212 226 238 262 286 293 295 290 295 297 312 312 315 316 319 320 322 324 330 330 331 333 335 337 339 340 341 342 337 342 348 349
146 134 138 150 147 162 124 133 172 193 144 171 205 170 215 295 323 352 11 19 78 283 110 136 134 130 133 140 144 145 145 151 153 155 154 54 326 289 187 194 195 210 210 223 217 217 214 208 203 211 214 213 220 243 255 266 270 272 278 273 284 289 295 302 311 310 311 315 316 319 324 326 326 331 337 337 338 341 345 345 346 347 348 346 346
149 145 144 158 154 150 174 77 95 167 163 173 116 171 209 223 211 216 210 157 99 238 114 133 147 146 144 141 151 142 150 152 155 160 167 203 261 261 278 196 204 213 218 225 227 226 223 223 219 220 224 228 233 246 253 259 263 269 274 280 282 289 296 302 306 304 304 308 311 316 319 321 327 329 332 334 339 341 343 340 340 337 335 338 343
155 151 152 156 161 153 146 115 147 6 52 97 109 98 215 232 201 226 185 111 112 100 113 113 153 174 150 152 151 155 160 162 170 177 185 198 224 262 302 278 215 215 223 229 231 232 232 233 235 242 244 247 248 253 255 261 267 269 278 284 289 295 300 299 298 303 311 313 312 315 320 323 326 327 330 332 332 335 333 334 336 333 331 335 337
170 164 165 159 162 159 157 153 158 90 52 70 75 53 42 89 110 85 68 46 44 15 93 111 138 180 170 162 158 168 167 166 174 181 192 199 213 227 253 258 272 229 223 230 234 235 240 242 246 244 245 246 252 256 261 267 273 276 277 284 290 296 299 298 297 301 303 303 308 312 316 321 322 324 324 322 324 325 329 327 329 329 326 326 328
163 165 143 159 166 175 170 157 151 141 78 41 70 32 59 71 28 39 248 80 2 356 33 2 89 153 181 170 168 178 170 178 185 192 193 202 207 214 228 245 249 260 276 243 240 243 243 243 246 248 250 252 256 261 265 270 272 276 279 278 279 285 290 295 299 302 304 311 316 316 314 314 316 314 314 316 320 322 321 323 322 323 324 322 320
169 161 157 166 171 182 178 160 157 147 131 146 131 56 103 187 241 151 341 33 28 335 360 284 359 144 196 178 182 175 179 190 184 191 199 206 201 216 220 226 237 246 248 269 260 247 245 247 247 250 253 258 261 263 266 269 273 276 276 279 282 285 289 295 302 306 307 306 306 309 308 308 308 307 308 311 314 316 316 317 317 317 319 316 309
163 160 163 173 180 190 188 170 166 152 159 170 187 177 197 152 266 168 212 284 346 321 354 276 265 209 192 190 180 180 188 189 195 200 202 194 211 214 219 223 223 226 229 229 243 257 248 248 249 252 254 257 261 264 267 268 268 269 272 277 283 287 290 292 294 295 296 299 302 303 304 304 304 303 306 309 310 311 310 310 310 306 303 302 303
161 166 166 176 177 189 187 178 162 156 168 195 198 181 178 199 258 203 165 201 181 288 313 336 315 278 183 186 188 184 192 197 201 200 182 203 212 218 219 225 226 227 230 224 232 243 253 253 252 254 257 258 259 262 264 266 269 272 275 278 280 284 284 280 284 287 290 293 294 298 300 302 302 303 303 302 301 298 298 297 299 300 299 298 298
161 164 168 182 175 182 184 177 166 160 163 164 206 174 165 157 218 290 163 159 228 302 312 358 342 317 225 204 194 193 204 202 202 191 189 208 216 217 218 219 222 229 226 227 231 235 243 259 260 260 259 259 259 261 262 264 267 271 275 278 280 281 281 279 278 280 283 286 289 292 292 292 293 293 293 295 295 296 297 297 295 294 292 290 287
165 167 165 185 169 188 194 186 174 171 160 171 182 176 171 167 208 253 3 212 215 211 206 3 333 315 291 185 191 219 212 212 197 194 200 209 214 222 207 223 223 231 232 231 233 232 237 239 250 257 261 262 262 262 263 265 267 270 271 271 273 276 280 283 284 284 285 284 281 280 283 286 288 289 289 289 289 293 295 296 295 292 289 285 286
171 173 182 176 175 187 198 193 185 174 178 181 189 187 194 188 210 208 340 331 245 200 130 56 357 19 317 57 119 195 238 218 203 209 205 211 218 205 215 216 220 232 230 232 234 236 234 235 237 242 250 261 262 265 268 268 268 267 267 270 272 275 279 280 284 284 283 286 285 282 278 280 282 284 287 289 292 293 294 294 293 288 284 279 277
176 177 190 193 186 182 188 191 184 183 189 200 190 196 200 176 158 188 166 32 310 144 139 119 56 339 351 6 349 352 225 217 228 223 218 219 207 211 217 217 230 228 231 232 235 236 237 235 237 245 252 256 266 267 267 266 266 266 269 271 273 275 277 280 283 285 286 286 287 286 283 277 273 277 282 284 285 287 288 289 286 280 275 271 270
180 182 190 190 183 189 193 193 189 191 193 175 179 195 177 156 158 72 253 198 246 172 179 116 13 174 286 332 343 328 275 213 218 229 223 223 213 217 211 222 235 233 224 227 240 239 239 234 233 239 245 246 251 253 262 268 270 269 268 269 271 272 273 274 277 280 283 284 285 281 278 276 274 272 279 279 280 281 283 285 285 279 272 271 270
185 184 192 193 196 191 196 189 191 193 178 181 191 197 171 164 171 161 325 324 259 232 183 178 179 137 117 87 327 355 322 352 299 253 221 211 204 219 218 224 236 232 216 224 240 242 239 231 231 232 238 240 244 247 252 257 258 263 264 264 264 267 268 271 273 275 277 280 281 280 277 275 273 276 277 274 273 276 279 281 282 282 278 269 266
188 191 197 199 198 201 188 188 194 198 179 173 184 208 184 160 165 183 128 309 319 294 174 194 135 130 359 89 229 116 350 306 299 288 236 216 201 219 211 223 231 236 198 226 238 240 243 234 236 234 234 237 241 243 250 250 260 266 268 264 259 256 260 264 267 270 272 275 277 274 270 270 271 270 272 272 272 272 272 274 278 281 278 274 269
193 196 199 202 204 202 192 196 193 190 174 173 181 199 197 169 170 168 183 191 239 280 209 181 209 185 137 84 36 19 223 246 343 289 343 219 225 218 219 219 224 223 218 237 241 245 246 246 242 238 237 237 238 240 245 253 260 263 267 268 266 262 258 258 262 265 268 271 273 273 271 269 269 269 271 271 272 271 268 269 272 272 274 273 271
194 196 202 202 203 202 199 193 196 193 191 195 190 176 190 163 188 184 208 212 178 210 143 167 204 211 220 164 163 175 206 243 95 285 318 243 290 245 223 231 226 228 231 243 241 245 233 247 241 243 241 237 238 240 240 249 249 254 256 262 264 264 263 259 259 262 263 266 268 269 270 269 268 267 269 271 272 272 270 268 268 269 269 271 269
193 194 198 201 199 200 199 200 197 195 198 185 186 198 195 193 178 180 203 175 144 179 193 196 54 239 204 154 118 139 148 123 227 56 344 318 351 303 270 239 228 232 242 244 247 249 248 238 246 244 245 240 238 240 244 248 249 249 251 256 258 257 259 260 259 259 261 262 265 266 266 266 266 266 267 268 269 269 267 267 265 265 265 266 266
191 196 198 194 193 198 197 197 202 209 201 198 198 201 195 202 181 192 176 173 183 171 208 210 156 216 67 81 83 78 85 100 130 162 164 280 313 320 293 273 226 228 231 244 245 245 255 245 243 249 247 244 236 238 242 247 248 252 258 258 258 258 259 261 259 258 258 261 264 265 266 265 266 266 266 264 264 265 264 263 262 263 262 262 263
196 198 200 196 193 193 192 197 202 206 205 212 217 196 193 181 164 158 169 183 191 182 154 206 171 189 106 38 69 70 38 50 88 81 116 104 290 290 299 320 277 265 244 245 252 249 249 250 245 248 247 250 237 238 241 244 248 246 251 252 253 255 258 260 260 259 259 259 263 265 265 265 265 265 265 264 264 262 262 262 261 260 260 261 261
201 204 202 200 197 191 192 198 204 201 199 203 204 198 199 187 184 179 156 152 200 169 186 184 196 191 160 155 146 16 42 42 42 72 47 83 173 284 253 303 321 293 290 252 249 253 250 253 256 250 247 247 240 236 236 242 243 248 249 248 252 256 261 261 261 258 259 260 260 263 265 265 263 262 262 263 264 265 263 262 260 259 261 261 261
201 206 209 200 199 194 195 202 202 200 200 193 197 197 198 194 189 166 155 159 177 187 192 177 189 170 170 159 178 171 180 174 211 209 135 120 19 303 307 221 224 302 285 271 262 256 251 255 250 253 245 250 245 236 237 240 244 242 247 255 257 260 263 265 264 263 262 263 265 265 266 267 266 265 263 264 264 265 265 265 261 261 262 261 260
202 205 211 207 201 199 202 199 199 197 204 196 194 196 194 187 170 177 177 173 160 145 156 178 190 201 214 197 193 162 156 165 187 151 139 192 167 259 290 310 321 235 278 315 271 255 262 254 248 248 249 246 246 235 240 245 251 253 255 260 261 263 265 267 268 267 266 265 265 267 269 271 273 274 274 274 274 273 271 270 269 268 267 266 270
206 205 211 203 201 200 199 199 205 205 205 195 198 185 183 184 183 182 173 173 189 173 172 202 182 183 213 203 161 158 197 177 123 134 107 125 137 332 291 211 242 302 300 14 318 307 243 250 265 257 251 255 258 253 252 253 256 265 264 276 283 280 275 272 271 271 271 271 271 272 272 271 275 277 277 278 278 277 276 276 275 277 276 277 280
200 209 208 199 201 203 198 200 203 205 204 204 196 185 175 183 182 179 188 199 181 190 204 200 184 197 126 165 195 194 197 186 170 141 149 134 149 191 258 321 73 293 296 351 314 1 325 347 309 293 287 277 271 258 256 260 279 284 293 278 282 278 277 277 277 277 276 276 277 277 278 279 280 281 282 283 282 284 288 289 289 287 287 288 290
200 210 201 197 203 200 199 198 203 208 205 207 206 187 180 174 178 190 191 181 194 199 227 185 190 203 200 201 208 223 230 207 178 206 181 191 176 172 141 321 338 11 339 315 327 288 239 299 321 350 326 282 280 265 252 247 255 265 274 277 274 279 280 281 279 278 279 279 280 281 280 280 282 284 287 291 293 297 298 300 301 303 305 305 304
202 194 201 192 197 199 197 200 199 205 207 207 204 194 184 178 181 174 201 184 186 203 227 204 217 199 206 183 187 255 237 248 222 237 205 207 186 149 126 128 155 307 334 336 351 308 271 331 319 271 358 21 335 261 257 259 261 275 287 278 272 278 279 280 283 284 284 284 283 283 283 285 289 294 298 300 303 303 305 308 311 313 314 315 316
200 193 192 194 195 196 198 199 195 199 206 211 205 199 187 187 185 183 202 202 189 206 215 209 231 201 193 196 214 252 281 285 287 262 215 187 182 164 162 161 155 134 298 326 286 259 308 286 358 295 309 357 6 333 329 304 287 292 286 268 264 267 275 279 283 285 286 288 290 292 295 300 307 309 309 309 308 310 316 315 314 321 318 323 326
197 196 186 190 193 197 199 203 197 191 203 210 208 205 187 194 194 193 199 189 199 210 212 211 235 216 224 235 193 253 268 298 266 252 195 161 146 161 180 149 144 168 182 202 277 218 263 309 198 271 324 344 349 337 324 306 295 299 281 268 269 268 282 294 299 303 304 305 307 308 315 318 315 316 317 317 325 328 317 314 319 322 326 335 340
197 193 190 192 189 196 196 204 200 203 199 209 211 209 193 199 197 199 195 185 199 210 218 203 229 217 244 253 241 248 255 253 274 295 277 143 152 159 147 130 157 141 156 133 351 288 180 271 293 246 264 311 326 318 317 310 306 320 324 311 306 311 320 318 314 311 313 316 318 324 326 331 333 328 322 333 343 332 329 332 337 341 348 344 342
199 194 196 197 193 194 195 199 203 205 203 211 206 210 199 206 198 194 197 187 202 214 222 210 215 206 225 242 247 240 241 232 265 255 234 242 167 162 170 172 173 151 141 140 173 267 240 222 256 291 280 277 305 303 305 313 312 328 328 322 315 318 323 316 319 328 327 331 339 350 356 348 326 313 341 5 349 340 352 6 6 2 358 356 354
195 196 201 204 201 202 198 198 202 203 206 210 206 203 203 211 208 200 188 189 202 223 224 230 222 203 212 230 246 244 201 206 242 239 230 231 214 201 163 164 172 171 157 158 209 271 293 244 251 263 298 315 311 248 314 311 322 328 333 320 325 329 321 328 334 328 330 342 353 1 353 325 346 14 16 3 351 11 25 21 9 2 358 360 354
192 200 203 205 204 202 204 206 204 205 206 207 204 195 205 210 211 198 193 190 203 217 216 235 230 218 209 224 250 253 218 213 230 228 220 213 201 205 199 186 196 199 204 162 216 237 281 311 300 290 291 257 294 276 289 317 318 334 331 329 337 348 332 336 339 324 332 344 355 353 352 12 19 16 12 17 22 32 34 22 12 6 3 357 358
199 202 203 204 203 201 208 210 207 208 208 208 203 199 208 209 208 207 197 192 199 206 210 223 229 226 224 227 243 245 240 231 239 238 220 211 193 199 214 197 204 211 190 199 174 236 265 282 264 299 279 314 248 293 308 298 298 300 308 318 335 329 324 331 325 318 325 341 347 352 12 20 25 16 16 41 35 42 42 28 23 19 13 6 359
202 208 203 201 197 198 206 211 210 210 209 209 207 207 209 208 214 214 206 203 205 209 209 212 218 219 225 232 239 236 235 233 244 241 232 218 203 212 219 215 206 222 203 191 208 218 233 258 294 256 289 312 292 282 281 292 295 308 298 303 318 314 312 320 310 305 316 336 345 8 19 24 25 24 30 32 35 45 42 33 27 21 14 4 355
207 205 211 204 201 198 205 209 210 211 212 208 210 214 214 211 213 215 215 212 214 216 217 216 213 213 221 227 234 226 220 234 248 242 232 228 224 214 225 227 214 226 218 200 215 207 232 254 277 276 276 280 263 290 283 300 328 323 324 327 313 306 306 289 286 296 311 322 358 13 28 22 24 31 29 28 25 34 37 34 26 17 9 360 353
209 208 209 209 207 208 211 211 210 212 211 210 212 215 215 213 214 217 219 219 221 221 224 225 222 214 220 225 228 222 222 225 239 240 234 235 230 227 232 235 228 216 232 241 221 217 221 248 251 292 299 272 310 284 277 317 319 322 323 320 329 355 345 337 328 338 325 335 357 12 24 19 22 29 23 24 23 27 31 32 23 14 4 354 351
209 211 211 212 215 213 216 214 215 213 210 208 211 214 215 213 212 213 218 220 223 223 225 226 228 226 226 227 224 217 223 226 232 234 231 235 229 237 229 231 221 214 239 249 234 232 233 253 268 241 271 273 233 284 311 360 236 222 267 318 329 302 322 343 318 327 317 331 27 48 36 34 36 26 17 18 21 26 32 29 15 9 359 356 355
209 211 213 212 216 216 218 217 219 216 212 209 209 211 212 211 211 214 214 218 221 225 229 228 227 230 230 231 230 224 223 229 228 234 218 231 228 242 238 223 219 213 238 247 250 241 248 247 250 269 244 277 297 271 316 1 336 332 168 204 290 296 317 307 263 291 301 343 357 6 10 22 25 15 14 10 13 22 32 22 5 2 2 358 355
210 212 214 214 214 217 221 220 220 216 214 213 208 206 206 209 210 214 213 215 218 224 230 231 228 230 234 233 234 232 229 231 228 229 223 216 211 230 242 209 218 216 233 238 238 242 248 247 268 259 274 286 274 294 315 299 265 270 283 66 261 259 264 284 283 259 239 304 321 17 24 9 26 12 356 6 360 5 20 22 2 356 360 355 353
213 211 213 215 215 215 217 220 219 219 219 216 212 205 201 203 206 213 215 219 220 222 227 231 233 229 231 233 236 235 234 236 236 235 234 229 223 219 232 204 215 215 226 233 236 233 238 250 253 262 277 273 275 264 261 249 244 285 318 301 276 287 326 300 283 269 258 20 16 18 13 16 41 357 358 359 338 356 1 13 351 360 358 357 353
215 213 212 215 216 215 215 216 218 221 222 220 211 202 203 204 202 207 212 218 219 223 226 227 233 232 234 234 238 244 241 234 238 237 236 234 233 234 239 232 214 207 222 231 240 231 228 240 256 254 248 268 272 252 243 264 239 239 244 235 249 301 298 301 303 307 288 35 47 42 4 4 58 12 327 337 329 339 357 3 338 5 2 359 355
216 214 216 216 216 215 216 216 218 220 224 222 210 204 201 203 204 206 210 216 216 220 225 228 232 233 235 235 235 235 236 237 233 236 237 238 237 237 240 244 244 239 228 219 236 245 222 237 253 248 244 252 268 259 256 230 245 227 243 236 238 249 262 243 247 260 265 38 38 28 323 311 7 7 340 316 319 311 330 7 359 4 4 359 355
213 215 218 217 217 216 216 216 218 220 225 220 210 205 203 202 204 207 213 211 214 219 221 226 232 234 234 235 239 233 236 234 236 234 231 239 235 234 240 248 254 249 249 251 248 243 234 221 238 258 236 242 256 253 206 211 171 205 206 229 251 246 240 249 244 261 299 83 97 46 311 263 14 4 336 302 304 298 317 0 360 4 359 357 352
214 217 217 219 219 217 216 217 219 222 222 220 207 206 205 203 203 201 215 212 214 219 221 223 228 233 233 232 234 240 235 235 233 229 227 230 236 234 236 237 242 251 247 240 242 246 242 238 236 248 254 197 242 246 218 164 170 236 225 247 237 259 250 242 227 206 253 56 198 137 339 292 303 11 324 293 311 303 300 348 3 358 358 352 350
213 215 216 218 219 219 218 217 219 223 226 217 205 205 205 203 203 198 213 215 217 221 222 223 226 228 230 229 231 237 241 233 227 221 224 227 226 232 237 241 240 245 245 245 237 232 225 222 234 241 255 241 234 244 217 187 209 221 209 224 223 230 250 359 36 69 11 133 124 107 253 263 303 8 282 281 311 305 283 337 1 359 354 351 349
215 215 218 218 219 220 219 218 219 225 227 214 204 204 204 204 198 197 209 215 219 222 223 223 224 225 226 226 227 233 239 238 234 225 224 221 218 230 237 245 251 251 250 239 236 233 226 220 224 236 247 249 240 239 211 200 215 225 227 259 313 227 230 276 249 289 233 258 157 141 200 273 241 126 280 291 330 301 306 340 349 360 352 348 349
213 214 216 215 217 218 218 217 219 225 228 215 203 202 202 200 186 201 205 213 220 223 227 223 223 224 224 224 223 230 235 238 237 225 222 215 223 229 236 244 250 258 261 258 230 233 237 235 233 237 246 254 252 239 224 212 209 181 151 209 247 200 213 256 263 231 245 233 245 147 136 287 280 142 290 286 304 289 307 324 343 352 348 346 347
214 214 212 216 215 215 216 218 216 221 227 218 202 202 200 192 187 197 204 208 220 223 229 228 225 226 225 221 220 225 232 238 239 230 219 198 216 229 235 240 247 253 260 257 246 241 231 237 243 246 249 255 253 250 251 238 216 186 177 227 220 163 218 217 245 219 264 270 239 145 115 210 307 16 302 293 333 264 277 303 344 340 347 348 347
217 214 213 216 217 215 216 218 217 219 227 223 203 199 197 191 190 201 201 206 218 224 224 230 228 229 231 229 227 226 227 235 239 234 217 190 213 223 227 233 242 249 253 245 225 246 240 244 255 249 259 252 247 242 244 237 213 206 213 229 209 186 221 216 212 154 299 268 222 163 146 255 99 300 64 353 4 276 275 294 340 337 345 350 349